Regional Weather Roundup
Issued by NWS

Home | Current Version | Previous Version | Text Only | Print | Product List | Glossary On
Versions: 1 2 3 4 5 6 7 8 9 10 11 12 13 14 15 16 17 18 19 20 21 22 23 24 25 26 27 28 29 30 31 32 33 34 35 36 37 38 39 40 41 42 43 44 45 46 47 48 49 50
000
ASUS42 KTBW 011410
RWRFL
FLORIDA REGIONAL WEATHER ROUNDUP
NATIONAL WEATHER SERVICE TAMPA BAY RUSKIN FL
1000 AM EDT WED OCT 01 2014

NOTE: "FAIR" INDICATES FEW OR NO CLOUDS BELOW 12,000 FEET WITH NO
SIGNIFICANT WEATHER AND/OR OBSTRUCTIONS TO VISIBILITY.


FLZ001>010-012>015-112-114-115-011500-
PANHANDLE FLORIDA

CITY           SKY/WX    TMP DP  RH WIND       PRES   REMARKS
PENSACOLA      MOSUNNY   72  67  84 NE5       29.96R
PENSACOLA NAS  MOSUNNY   75  69  81 NE8       29.96R
MILTON NAS     MOSUNNY   72  67  84 NE7       29.97R
CRESTVIEW      CLOUDY    72  68  87 E7        30.00R
DUKE FIELD     PTSUNNY   70  70 100 NE3       29.97S
VALPARAISO     MOSUNNY   74  68  80 NE6       29.97R
MARY ESTHER    SUNNY     74  66  77 NE8       29.95R
TRI COUNTY     CLOUDY    69  68  96 CALM      30.00R
PANAMA CITY    CLOUDY    73  69  87 N3        29.97R
TYNDALL AFB    CLOUDY    72  72 100 NE6       29.97
APALACHICOLA   MOSUNNY   79  72  79 NE7       29.96R

STATION/POSITION SKY/WX   TEMP    WIND        PRES    WAVE   SWELL
                          AIR SEA DIR/SP/G            HT/PER HT/PER
                          (F)     (DEG/KT/KT) (MB)    (FT/S) (FT/S)
30.1N   87.6W              78 81   60/  8/ 10 1014.2R   1/ 4
29.2N   88.2W              80 82  130/  8/ 10 1014.0    1/ 4   2/ 5
28.8N   86.0W              81 83  140/  2/  4 1013.7R   2/ 4   2/ 4
PANAMA CITY BEAC           71 80   40/  6/  9 1014.8R
CAPE SAN BLAS    NOT AVBL
TOWER C                    78      90/  9/ 10 1014.1R
28.5N   84.5W              80 83   90/  8/ 10 1013.6R   3/ 5   2/ 5

$$
FLZ011-016>038-118-127-128-134-139-239-011500-
NORTH FLORIDA

CITY           SKY/WX    TMP DP  RH WIND       PRES   REMARKS
MARIANNA       CLOUDY    70  70 100 NE3       29.98R
TALLAHASSEE    CLOUDY    73  69  87 N5        29.98R
PERRY          PTSUNNY   64  59  82 CALM      29.98R
CROSS CITY       N/A     78  70  76 NE6       29.96R
LAKE CITY      CLOUDY    73  70  88 CALM      29.97R
GAINESVILLE    CLOUDY    75  70  84 N3        29.96R
MAYPORT NAS    CLOUDY    79  70  74 NE10      29.96R
JACKSONVILLE   CLOUDY    76  71  85 NE3       29.96R
JAX NAS        CLOUDY    79  70  74 N8        29.96R
JAX CRAIG      CLOUDY    79  70  74 NE5       29.96R
JAX CECIL      PTSUNNY   77  72  83 NE7       29.96R
FERNANDINA BEA CLOUDY    81  73  78 N5        29.95R
ST AUGUSTINE   CLOUDY    81  71  71 E8        29.96R

STATION/POSITION SKY/WX   TEMP    WIND        PRES    WAVE   SWELL
                          AIR SEA DIR/SP/G            HT/PER HT/PER
                          (F)     (DEG/KT/KT) (MB)    (FT/S) (FT/S)
SHELL POINT                72      10/  2/  4   N/A
KEATON BEACH               76      70/  6/  8 1014.7R
CEDAR KEY                  74      50/  7/  9 1014.1R
FERNANDINA                 75 78   10/  5/  7 1014.1R
30.7N   81.3W                 79                N/A     3/ 7
MAYPORT                    78 79   50/ 10/ 11   N/A
31.4N   80.9W              75 79   20/  8/ 10 1014.9R   2/ 6   2/ 6
ST AUGUSTINE               79      50/  8/ 10 1014.7R

$$
FLZ040-043>046-052-053-057-058-063-144-011500-
INTERIOR CENTRAL FLORIDA

CITY           SKY/WX    TMP DP  RH WIND       PRES   REMARKS
OCALA          PTSUNNY   75  70  83 NE5       29.95R
THE VILLAGES     N/A     79  73  83 CALM      29.85R
LEESBURG       CLOUDY    78  73  84 NE5       29.95R
SANFORD        CLOUDY    79  75  87 E5        29.94R
ORLANDO EXEC   CLOUDY    80  75  84 E8        29.94R
ORLANDO INTL   PTSUNNY   78  76  93 E5        29.94R
WINTER HAVEN   CLOUDY    80  76  87 S6        29.94S
LAKELAND       CLOUDY    79  75  89 S5        29.93R
BARTOW         PTSUNNY   79  79 100 SE7       29.94R
OKEECHOBEE       N/A     79  77  94 MISG      29.95R

$$
FLZ041-047-054-059-064-141-147-011500-
EAST CENTRAL FLORIDA

CITY           SKY/WX    TMP DP  RH WIND       PRES   REMARKS
ORMOND BEACH   PTSUNNY   81  73  78 MISG      29.94R
DAYTONA BEACH  MOSUNNY   80  73  79 E8        29.95R
DELAND         MOSUNNY   81  73  78 E6        29.96R
NEW SMYRNA BEA MOSUNNY   81  75  83 E9        29.95R
JFK SPACE CTR  LGT RAIN  79  75  89 NE8       29.94R
TITUSVILLE     PTSUNNY   79  77  94 CALM      29.94R
CAPE CANAVERAL SUNNY     80  76  86 NW3       29.93R
PATRICK AFB    PTSUNNY   79  77  94 W3        29.95R
MELBOURNE      MOSUNNY   81  76  84 VRB3      29.94R
VERO BEACH     PTSUNNY   80  76  87 SW8       29.94R
FT PIERCE      PTSUNNY   82  77  84 SW5       29.94R
STUART         MOSUNNY   81  77  89 SW7       29.96R

STATION/POSITION SKY/WX   TEMP    WIND        PRES    WAVE   SWELL
                          AIR SEA DIR/SP/G            HT/PER HT/PER
                          (F)     (DEG/KT/KT) (MB)    (FT/S) (FT/S)
28.5N   80.2W              80 83  260/  8/ 10 1013.3R
28.9N   78.5W              82 85   20/  6/  8 1013.7R   4/ 8   3/ 8
TRIDENT PIER               80 83  300/  3/  4 1013.2R
28.4N   80.5W                 83                N/A     1/ 8
27.6N   80.2W                 83                N/A     2/ 8

$$
FLZ050-056-061-142-242-148-248-149-249-151-251-155-255-
160-260-011500-
WEST CENTRAL FLORIDA

CITY           SKY/WX    TMP DP  RH WIND       PRES   REMARKS
CRYSTAL RIVER  CLOUDY    77  70  78 NE5       29.95R
INVERNESS      CLOUDY    75  55  50 NE5       29.95R
BROOKSVILLE    CLOUDY    77  73  87 NE7       29.95R
ZEPHYRHILLS      N/A     68  68 100 CALM      29.94R
CLEARWATER     PTSUNNY   79  75  87 VRB5      29.93R
TAMPA INTL     PTSUNNY   78  74  87 N5        29.93R
TAMPA EXEC     CLOUDY    79  75  89 N3        29.93R
PLANT CITY     CLOUDY    81 N/A N/A SW3       29.95R
MACDILL AFB    MOSUNNY   82  79  89 NW5       29.94R
ST PETERSBURG  MOSUNNY   78  74  87 CALM      29.91R
SARASOTA       MOSUNNY   84  76  76 W9        29.92R
VENICE           N/A     84  75  74 MISG      29.95R

STATION/POSITION SKY/WX   TEMP    WIND        PRES    WAVE   SWELL
                          AIR SEA DIR/SP/G            HT/PER HT/PER
                          (F)     (DEG/KT/KT) (MB)    (FT/S) (FT/S)
CEDAR KEY                  74      50/  7/  9 1014.1R
28.5N   84.5W              80 83   90/  8/ 10 1013.6R   3/ 5   2/ 5
27.3N   84.3W                 84                N/A     1/ 5
CLEARWATER BEACH           78 82   20/  3/  5 1013.1R
MIDDLE TAMPA BAY           79     310/  5/  6 1013.7R
VENICE                     83 85  260/  9/ 10 1013.3R

$$
FLZ066-069-070-075>078-162-262-165-265-011500-
SOUTHWEST FLORIDA AND KEYS

CITY           SKY/WX    TMP DP  RH WIND       PRES   REMARKS
PUNTA GORDA    MOSUNNY   85  76  74 W7        29.95R
FT MYERS       MOSUNNY   80  77  90 W7        29.94R
SOUTHWEST INTL HVY RAIN  80  77  90 W3        29.95R FOG
NAPLES         MOSUNNY   81  76  84 CALM      29.95R
MARCO ISLAND   MOSUNNY   84  77  79 NW7       29.95R
MARATHON       SUNNY     87  78  74 VRB3      29.96R HX 100
KEY WEST NAS   MOSUNNY   86  76  71 SW9       29.96R HX  96
KEY WEST INTL  MOSUNNY   85  77  77 S9        29.96R HX  95

STATION/POSITION SKY/WX   TEMP    WIND        PRES    WAVE   SWELL
                          AIR SEA DIR/SP/G            HT/PER HT/PER
                          (F)     (DEG/KT/KT) (MB)    (FT/S) (FT/S)
VENICE                     83 85  260/  9/ 10 1013.3R
NAPLES                     82 87  240/  6/  7 1014.8R
DRY TORTUGAS               84     220/  7/  8 1014.1R
NW FL BAY                  85     240/  8/  9 1013.8R
SAND KEY                   83     210/  8/ 10 1014.5R
SOMBRERO KEY               84     230/  9/ 10 1015.2R
LONG KEY                   84 85  240/ 10/ 11 1014.9R
MOLASSES REEF              83 85  230/ 10/ 11 1014.5R

$$
FLZ067-068-071>074-168-172>174-011500-
SOUTHEAST FLORIDA

CITY           SKY/WX    TMP DP  RH WIND       PRES   REMARKS
W PALM BEACH   PTSUNNY   83  77  82 SW7       29.94R
FT LAUDER-EXEC MOSUNNY   84  75  74 SW9       29.95R
FT LAUDERDALE  MOSUNNY   85  75  72 SW10      29.94R
POMPANO BEACH  PTSUNNY   86  77  74 SW9       29.95R HX  97
PEMBROKE PINES MOSUNNY   85  77  77 SW8       29.96R HX  95
OPA LOCKA      MOSUNNY   86  76  71 SW10      29.96R HX  96
MIAMI          MOSUNNY   86  75  69 W9        29.96R HX  95
WEST KENDALL   SUNNY     86  76  71 SW9       29.96R HX  96
HOMESTEAD      NOT AVBL

STATION/POSITION SKY/WX   TEMP    WIND        PRES    WAVE   SWELL
                          AIR SEA DIR/SP/G            HT/PER HT/PER
                          (F)     (DEG/KT/KT) (MB)    (FT/S) (FT/S)
PORT EVERGLADES            84     240/  6/  9 1014.2
VIRGINIA KEY               83 85  250/  7/  8 1014.7R
LAKE WORTH                 82 85  250/  6/  8 1013.9R
FOWEY ROCKS                85 84  250/  8/  8 1014.7R
SETTLEMENT POINT           83     270/ 11/ 13 1014.8R

$$




USA.gov is the U.S. government's official web portal to all federal, state and local government web resources and services.